Location: Wolf Lake
(46.8518°N, 80.6381°W)
Time: 22:13:06
(UTC-04:00)

ISS - Pass Details

Date: 30 May 2022
Orbit: 414 x 420 km, 51.6° (Epoch: 29 June)

Event Time Altitude Azimuth Distance (km) Brightness Sun altitude
Rises 22:36:46 0° 287° (WNW) 2,368 1.1 -12.0°
Reaches altitude 10° 22:39:22 10° 266° (W) 1,497 -0.5 -12.3°
Maximum altitude 22:41:38 17° 224° (SW) 1,139 -1.7 -12.5°
Enters shadow 22:43:15 13° 191° (S) 1,331 -1.6 -12.7°
